Total_Precipitation_Accumulation
1.19 1.20 1.21 1.15 1.16 1.19 1.11 1.08 1.11 1.21 1.28 1.31 1.30 1.28 1.22 1.17 1.17 1.17 1.08 1.14 1.22 1.25 1.24 1.32 1.38 1.39 1.41 1.44 1.53 1.61 1.77 1.93 1.76 1.42 1.35 1.40 1.46 1.43 1.29 1.10 0.93 0.89 0.79
1.24 1.34 1.40 1.41 1.41 1.36 1.21 1.14 1.19 1.26 1.34 1.39 1.39 1.36 1.25 1.25 1.35 1.36 1.28 1.33 1.37 1.34 1.33 1.36 1.30 1.35 1.47 1.46 1.54 1.55 1.64 1.85 1.78 1.62 1.58 1.61 1.65 1.60 1.53 1.31 1.05 0.93 0.88
1.46 1.66 1.83 1.85 1.67 1.51 1.43 1.36 1.39 1.41 1.45 1.49 1.50 1.55 1.52 1.52 1.49 1.52 1.58 1.54 1.42 1.31 1.34 1.34 1.30 1.37 1.39 1.47 1.53 1.47 1.46 1.56 1.69 1.71 1.72 1.80 1.84 1.72 1.59 1.43 1.28 1.20 0.97
1.25 1.54 1.73 1.84 1.70 1.63 1.59 1.45 1.40 1.42 1.49 1.54 1.58 1.74 1.88 1.90 1.87 1.78 1.68 1.57 1.47 1.40 1.33 1.27 1.27 1.29 1.30 1.35 1.40 1.43 1.47 1.57 1.68 1.72 1.80 1.98 2.00 2.03 1.93 1.67 1.54 1.47 1.21
1.07 1.24 1.47 1.70 1.54 1.35 1.32 1.28 1.25 1.30 1.42 1.64 1.80 1.90 2.11 2.24 2.11 2.09 1.95 1.82 1.76 1.61 1.47 1.37 1.28 1.25 1.27 1.28 1.23 1.28 1.42 1.54 1.54 1.58 1.65 1.84 1.93 2.05 2.00 1.77 1.61 1.61 1.46
1.06 1.19 1.36 1.46 1.34 1.17 1.06 1.07 1.11 1.17 1.32 1.47 1.62 1.70 1.73 1.64 1.79 1.79 1.73 1.73 1.75 1.66 1.59 1.52 1.38 1.26 1.22 1.16 1.07 1.09 1.16 1.22 1.33 1.45 1.46 1.60 1.78 1.88 2.01 2.07 1.92 1.78 1.69
1.11 1.16 1.27 1.36 1.36 1.25 1.07 1.04 1.07 1.15 1.29 1.37 1.41 1.46 1.42 1.47 1.48 1.33 1.30 1.29 1.41 1.47 1.52 1.51 1.31 1.19 1.25 1.16 1.15 1.08 1.03 1.07 1.13 1.30 1.38 1.41 1.62 1.81 2.02 2.18 2.18 2.09 1.94
1.09 1.18 1.37 1.51 1.47 1.40 1.33 1.27 1.29 1.31 1.32 1.33 1.36 1.38 1.44 1.41 1.31 1.13 1.13 1.08 1.16 1.24 1.33 1.37 1.34 1.26 1.26 1.30 1.25 1.15 1.04 1.03 1.07 1.07 1.10 1.24 1.51 1.88 2.09 2.12 2.22 2.22 2.12
1.24 1.33 1.43 1.59 1.63 1.61 1.66 1.68 1.67 1.62 1.50 1.45 1.46 1.48 1.46 1.42 1.33 1.11 1.09 1.02 1.09 1.16 1.21 1.24 1.24 1.19 1.23 1.17 1.13 1.09 1.07 1.06 0.99 0.98 0.98 1.06 1.21 1.44 1.80 1.92 1.97 1.93 1.84
1.37 1.50 1.55 1.72 1.83 1.79 1.85 1.93 1.98 2.01 1.91 1.85 1.72 1.62 1.55 1.48 1.40 1.14 1.08 1.03 1.09 1.15 1.23 1.21 1.14 1.04 1.00 0.95 0.95 1.03 0.99 0.96 1.03 1.01 0.94 0.90 0.88 1.03 1.33 1.53 1.61 1.63 1.53
1.39 1.53 1.63 1.83 1.99 2.10 2.24 2.33 2.32 2.29 2.24 2.11 1.91 1.80 1.80 1.78 1.62 1.22 1.06 1.02 1.07 1.20 1.24 1.24 1.15 1.05 0.89 0.84 0.84 0.90 0.93 0.93 1.01 1.04 1.00 0.98 0.99 1.01 1.09 1.25 1.45 1.54 1.47
1.34 1.51 1.75 1.95 2.00 2.06 2.34 2.42 2.40 2.34 2.24 2.11 1.98 1.81 1.72 1.67 1.51 1.25 1.05 1.06 1.16 1.24 1.26 1.24 1.24 1.08 0.90 0.85 0.81 0.80 0.82 0.79 0.82 0.92 0.91 0.87 0.88 0.88 0.92 1.07 1.27 1.40 1.48
1.42 1.57 1.81 1.99 2.15 2.27 2.39 2.36 2.33 2.32 2.23 2.09 1.99 1.85 1.80 1.86 1.78 1.43 1.21 1.19 1.22 1.19 1.20 1.23 1.17 1.05 0.88 0.77 0.79 0.77 0.71 0.69 0.76 0.84 0.85 0.78 0.74 0.79 0.89 1.03 1.17 1.30 1.36
1.34 1.43 1.58 1.72 1.79 1.92 2.10 2.07 1.99 2.00 2.05 2.03 1.96 1.88 1.84 1.87 1.83 1.58 1.37 1.33 1.32 1.28 1.22 1.19 1.08 1.02 0.89 0.81 0.82 0.75 0.68 0.74 0.82 0.83 0.86 0.86 0.84 0.86 0.90 0.96 1.06 1.16 1.22
1.21 1.24 1.33 1.43 1.55 1.67 1.74 1.81 1.78 1.75 1.68 1.69 1.70 1.70 1.63 1.60 1.64 1.51 1.38 1.44 1.50 1.50 1.44 1.37 1.26 1.16 1.02 0.93 0.91 0.92 0.92 0.98 0.95 0.94 0.98 1.03 1.01 0.95 0.92 0.96 1.09 1.13 1.08
1.27 1.23 1.22 1.27 1.35 1.41 1.51 1.51 1.47 1.37 1.26 1.18 1.15 1.16 1.16 1.20 1.30 1.22 1.15 1.22 1.31 1.38 1.33 1.27 1.23 1.15 1.07 1.06 1.09 1.10 1.09 1.09 1.06 1.07 1.08 1.12 1.12 1.04 0.96 0.96 1.06 1.12 1.06
1.36 1.29 1.26 1.20 1.21 1.28 1.36 1.42 1.41 1.24 1.05 0.92 0.83 0.80 0.81 0.88 0.97 0.98 0.99 1.08 1.19 1.28 1.26 1.27 1.24 1.21 1.14 1.11 1.13 1.13 1.10 1.10 1.14 1.15 1.15 1.16 1.21 1.21 1.17 1.11 1.08 1.13 1.12
1.37 1.32 1.25 1.19 1.15 1.18 1.22 1.24 1.31 1.36 1.26 1.07 0.87 0.72 0.67 0.66 0.71 0.81 0.91 1.02 1.15 1.19 1.19 1.23 1.21 1.19 1.16 1.13 1.09 1.10 1.11 1.14 1.14 1.13 1.16 1.19 1.25 1.26 1.27 1.20 1.12 1.09 1.11
1.17 1.14 1.10 1.11 1.13 1.12 1.15 1.16 1.15 1.22 1.22 1.16 1.02 0.85 0.73 0.66 0.66 0.75 0.79 0.87 1.05 1.12 1.12 1.11 1.07 1.02 1.00 1.00 1.00 0.98 0.98 0.99 1.01 1.08 1.08 1.09 1.15 1.14 1.10 1.07 1.08 1.08 1.09
1.14 1.09 1.02 1.03 1.08 1.10 1.11 1.11 1.09 1.15 1.16 1.16 1.06 0.89 0.75 0.64 0.65 0.70 0.74 0.87 1.04 1.06 1.03 0.97 0.96 0.93 0.93 0.94 0.94 0.92 0.91 0.93 0.98 1.07 1.08 1.06 1.08 1.06 1.01 1.01 1.06 1.09 1.07
1.14 1.04 0.91 0.88 0.92 0.98 1.03 1.03 1.01 1.03 1.03 1.06 0.96 0.76 0.64 0.59 0.65 0.72 0.81 0.93 1.03 0.98 0.94 0.91 0.89 0.85 0.83 0.83 0.84 0.86 0.89 0.95 0.98 1.04 1.08 1.10 1.12 1.09 1.03 1.03 1.07 1.12 1.13
1.17 1.08 0.95 0.83 0.80 0.86 0.92 0.96 0.96 0.95 0.95 0.95 0.86 0.66 0.56 0.52 0.58 0.67 0.75 0.85 0.90 0.89 0.87 0.86 0.82 0.76 0.75 0.77 0.81 0.87 0.91 0.93 0.98 1.05 1.07 1.10 1.15 1.11 1.09 1.09 1.08 1.12 1.18
1.09 1.03 0.93 0.77 0.73 0.78 0.83 0.92 0.92 0.85 0.86 0.86 0.77 0.64 0.58 0.60 0.62 0.68 0.75 0.79 0.81 0.85 0.84 0.79 0.73 0.69 0.70 0.71 0.74 0.81 0.88 0.93 0.94 0.98 1.02 1.05 1.10 1.10 1.13 1.11 1.08 1.12 1.15
0.93 0.94 0.90 0.74 0.68 0.79 0.86 0.92 0.88 0.80 0.81 0.79 0.69 0.66 0.63 0.66 0.67 0.69 0.71 0.74 0.76 0.75 0.74 0.72 0.65 0.60 0.61 0.64 0.69 0.71 0.74 0.77 0.78 0.84 0.87 0.93 0.99 1.03 1.07 1.06 1.05 1.07 1.12
0.82 0.82 0.86 0.78 0.71 0.78 0.85 0.88 0.85 0.78 0.73 0.68 0.62 0.65 0.66 0.64 0.66 0.68 0.70 0.75 0.74 0.70 0.66 0.62 0.64 0.65 0.64 0.65 0.68 0.70 0.71 0.64 0.62 0.65 0.71 0.79 0.84 0.91 0.94 0.92 0.95 1.02 1.08
0.74 0.73 0.77 0.76 0.72 0.75 0.82 0.85 0.83 0.74 0.67 0.61 0.58 0.59 0.62 0.62 0.63 0.65 0.65 0.67 0.67 0.69 0.67 0.66 0.64 0.63 0.63 0.61 0.58 0.57 0.54 0.48 0.47 0.53 0.58 0.65 0.73 0.81 0.84 0.84 0.83 0.91 0.98